Time,TemperatureF,DewpointF,PressureIn,WindDirection,WindDirectionDegrees,WindSpeedMPH,WindSpeedGustMPH,Humidity,HourlyPrecipIn,Conditions,Clouds,dailyrainin,SoftwareType,DateUTC
2013-06-19 00:02:00,70.6,61.1,29.93,SSW,193,0.0,1.0,72,0.00,,FEW250,0.00,VWS V14.01,2013-06-19 05:02:00,
2013-06-19 00:07:00,70.8,61.3,29.93,SSW,193,0.0,1.0,72,0.00,,FEW250,0.00,VWS V14.01,2013-06-19 05:07:00,
2013-06-19 00:12:00,70.8,61.3,29.93,SSW,193,0.0,1.0,72,0.00,,FEW250,0.00,VWS V14.01,2013-06-19 05:12:00,
2013-06-19 00:17:00,70.8,61.3,29.93,SSW,193,0.0,0.0,72,0.00,,FEW250,0.00,VWS V14.01,2013-06-19 05:17:00,
2013-06-19 00:22:00,70.6,61.5,29.93,SSW,193,0.0,0.0,73,0.00,,FEW250,0.00,VWS V14.01,2013-06-19 05:22:00,
2013-06-19 00:27:00,70.2,61.2,29.93,SSW,193,0.0,0.0,73,0.00,,FEW250,0.00,VWS V14.01,2013-06-19 05:27:00,
2013-06-19 00:32:00,69.9,61.2,29.93,SSW,193,0.0,0.0,74,0.00,,FEW250,0.00,VWS V14.01,2013-06-19 05:32:00,
2013-06-19 00:37:00,69.6,61.3,29.93,SSW,193,0.0,1.0,75,0.00,,FEW250,0.00,VWS V14.01,2013-06-19 05:37:00,
2013-06-19 00:42:00,69.6,61.3,29.93,SSW,193,0.0,0.0,75,0.00,,FEW250,0.00,VWS V14.01,2013-06-19 05:42:00,
2013-06-19 00:47:00,69.6,61.3,29.94,SSW,193,0.0,0.0,75,0.00,,FEW250,0.00,VWS V14.01,2013-06-19 05:47:00,
2013-06-19 00:52:00,69.4,61.1,29.94,SSW,193,0.0,1.0,75,0.00,,FEW250,0.00,VWS V14.01,2013-06-19 05:52:00,
2013-06-19 00:57:00,69.3,61.4,29.94,SSW,193,1.0,1.0,76,0.00,,FEW250,0.00,VWS V14.01,2013-06-19 05:57:00,
2013-06-19 01:02:00,69.3,61.0,29.94,SSW,193,1.0,2.0,75,0.00,,FEW250,0.00,VWS V14.01,2013-06-19 06:02:00,
2013-06-19 01:07:00,69.4,60.4,29.94,SSW,212,2.0,3.0,73,0.00,,FEW250,0.00,VWS V14.01,2013-06-19 06:07:00,
2013-06-19 01:12:00,69.6,60.2,29.94,SW,227,2.0,3.0,72,0.00,,FEW250,0.00,VWS V14.01,2013-06-19 06:12:00,
2013-06-19 01:17:00,69.7,59.9,29.94,SW,227,0.0,2.0,71,0.00,,FEW250,0.00,VWS V14.01,2013-06-19 06:17:00,
2013-06-19 01:22:00,69.5,59.7,29.94,SW,227,1.0,1.0,71,0.00,,FEW250,0.00,VWS V14.01,2013-06-19 06:22:00,
2013-06-19 01:27:00,69.4,60.0,29.95,SW,227,0.0,0.0,72,0.00,,FEW250,0.00,VWS V14.01,2013-06-19 06:27:00,
2013-06-19 01:32:00,69.0,59.6,29.94,SW,227,0.0,0.0,72,0.00,,FEW250,0.00,VWS V14.01,2013-06-19 06:32:00,
2013-06-19 01:37:00,68.6,59.6,29.94,SW,227,0.0,0.0,73,0.00,,FEW250,0.00,VWS V14.01,2013-06-19 06:37:00,
2013-06-19 01:42:00,68.3,59.7,29.94,SW,227,0.0,0.0,74,0.00,,FEW250,0.00,VWS V14.01,2013-06-19 06:42:00,
2013-06-19 01:47:00,68.0,59.4,29.94,SW,227,0.0,0.0,74,0.00,,FEW250,0.00,VWS V14.01,2013-06-19 06:47:00,
2013-06-19 01:52:00,67.7,59.9,29.94,SW,227,0.0,0.0,76,0.00,,SCT250,0.00,VWS V14.01,2013-06-19 06:52:00,
2013-06-19 01:57:00,67.3,59.8,29.94,SW,227,0.0,0.0,77,0.00,,SCT250,0.00,VWS V14.01,2013-06-19 06:57:00,
2013-06-19 02:02:00,67.1,60.0,29.93,SW,227,0.0,1.0,78,0.00,,SCT250,0.00,VWS V14.01,2013-06-19 07:02:00,
2013-06-19 02:07:00,66.9,60.5,29.94,SW,227,0.0,0.0,80,0.00,,SCT250,0.00,VWS V14.01,2013-06-19 07:07:00,
2013-06-19 02:12:00,66.6,60.6,29.94,SW,227,0.0,0.0,81,0.00,,SCT250,0.00,VWS V14.01,2013-06-19 07:12:00,
2013-06-19 02:17:00,66.3,60.7,29.93,SW,227,0.0,0.0,82,0.00,,SCT250,0.00,VWS V14.01,2013-06-19 07:17:00,
2013-06-19 02:22:00,66.1,60.8,29.94,SW,227,0.0,0.0,83,0.00,,SCT250,0.00,VWS V14.01,2013-06-19 07:22:00,
2013-06-19 02:27:00,65.8,60.8,29.94,SW,227,0.0,0.0,84,0.00,,SCT250,0.00,VWS V14.01,2013-06-19 07:27:00,
2013-06-19 02:32:00,65.7,61.1,29.94,SW,227,0.0,0.0,85,0.00,,SCT250,0.00,VWS V14.01,2013-06-19 07:32:00,
2013-06-19 02:37:00,65.6,61.3,29.93,SW,227,0.0,0.0,86,0.00,,SCT250,0.00,VWS V14.01,2013-06-19 07:37:00,
2013-06-19 02:42:00,65.5,61.5,29.93,SW,227,0.0,0.0,87,0.00,,SCT250,0.00,VWS V14.01,2013-06-19 07:42:00,
2013-06-19 02:47:00,65.6,62.0,29.93,SW,227,0.0,1.0,88,0.00,,SCT250,0.00,VWS V14.01,2013-06-19 07:47:00,
2013-06-19 02:52:00,65.6,61.6,29.93,SW,227,0.0,0.0,87,0.00,,SCT250,0.00,VWS V14.01,2013-06-19 07:52:00,
2013-06-19 02:57:00,65.6,61.6,29.93,SW,227,0.0,0.0,87,0.00,,SCT250,0.00,VWS V14.01,2013-06-19 07:57:00,
2013-06-19 03:02:00,65.6,61.6,29.93,SW,227,0.0,0.0,87,0.00,,SCT250,0.00,VWS V14.01,2013-06-19 08:02:00,
2013-06-19 03:07:00,65.6,61.6,29.92,SW,227,0.0,0.0,87,0.00,,SCT250,0.00,VWS V14.01,2013-06-19 08:07:00,
2013-06-19 03:12:00,65.6,61.3,29.92,SW,227,0.0,0.0,86,0.00,,SCT250,0.00,VWS V14.01,2013-06-19 08:12:00,
2013-06-19 03:17:00,65.4,61.1,29.92,SW,227,0.0,0.0,86,0.00,,SCT250,0.00,VWS V14.01,2013-06-19 08:17:00,
2013-06-19 03:22:00,65.2,60.9,29.92,SW,227,0.0,0.0,86,0.00,,SCT250,0.00,VWS V14.01,2013-06-19 08:22:00,
2013-06-19 03:27:00,65.2,60.9,29.93,SW,227,0.0,1.0,86,0.00,,SCT250,0.00,VWS V14.01,2013-06-19 08:27:00,
2013-06-19 03:32:00,65.3,61.0,29.93,SW,227,0.0,1.0,86,0.00,,SCT250,0.00,VWS V14.01,2013-06-19 08:32:00,
2013-06-19 03:37:00,65.5,60.9,29.93,SW,227,0.0,0.0,85,0.00,,SCT250,0.00,VWS V14.01,2013-06-19 08:37:00,
2013-06-19 03:42:00,65.5,60.9,29.93,SW,227,0.0,0.0,85,0.00,,SCT250,0.00,VWS V14.01,2013-06-19 08:42:00,
2013-06-19 03:48:00,65.4,60.8,29.93,SW,227,0.0,0.0,85,0.00,,SCT250,0.00,VWS V14.01,2013-06-19 08:48:00,
2013-06-19 03:53:00,65.5,60.5,29.93,SW,227,0.0,0.0,84,0.00,,SCT250,0.00,VWS V14.01,2013-06-19 08:53:00,
2013-06-19 03:58:00,65.6,60.3,29.93,SW,227,0.0,0.0,83,0.00,,SCT250,0.00,VWS V14.01,2013-06-19 08:58:00,
2013-06-19 04:02:00,65.6,60.3,29.93,SW,227,1.0,1.0,83,0.00,,SCT250,0.00,VWS V14.01,2013-06-19 09:02:00,
2013-06-19 04:07:00,65.7,60.4,29.93,SW,227,0.0,0.0,83,0.00,,SCT250,0.00,VWS V14.01,2013-06-19 09:07:00,
2013-06-19 04:13:00,65.8,60.5,29.93,SW,227,0.0,1.0,83,0.00,,SCT250,0.00,VWS V14.01,2013-06-19 09:13:00,
2013-06-19 04:18:00,65.8,60.2,29.94,SW,227,2.0,2.0,82,0.00,,SCT250,0.00,VWS V14.01,2013-06-19 09:18:00,
2013-06-19 04:23:00,66.1,60.1,29.94,SW,227,0.0,1.0,81,0.00,,SCT250,0.00,VWS V14.01,2013-06-19 09:23:00,
2013-06-19 04:28:00,66.4,60.4,29.94,SW,227,0.0,1.0,81,0.00,,SCT250,0.00,VWS V14.01,2013-06-19 09:28:00,
2013-06-19 04:33:00,66.5,60.5,29.94,SW,227,0.0,0.0,81,0.00,,SCT250,0.00,VWS V14.01,2013-06-19 09:33:00,
2013-06-19 04:38:00,66.5,60.5,29.94,SW,227,0.0,0.0,81,0.00,,SCT250,0.00,VWS V14.01,2013-06-19 09:38:00,
2013-06-19 04:43:00,66.3,60.7,29.94,SW,227,0.0,1.0,82,0.00,,SCT250,0.00,VWS V14.01,2013-06-19 09:43:00,
2013-06-19 04:48:00,66.4,60.4,29.94,SW,227,0.0,1.0,81,0.00,,SCT250,0.00,VWS V14.01,2013-06-19 09:48:00,
2013-06-19 04:53:00,66.6,60.6,29.94,SW,227,0.0,0.0,81,0.00,,BKN250,0.00,VWS V14.01,2013-06-19 09:53:00,
2013-06-19 04:58:00,66.7,60.7,29.94,SW,227,0.0,1.0,81,0.00,,BKN250,0.00,VWS V14.01,2013-06-19 09:58:00,
2013-06-19 05:03:00,66.3,60.7,29.93,SW,227,1.0,1.0,82,0.00,,BKN250,0.00,VWS V14.01,2013-06-19 10:03:00,
2013-06-19 05:08:00,66.0,60.7,29.93,SW,227,1.0,2.0,83,0.00,,BKN250,0.00,VWS V14.01,2013-06-19 10:08:00,
2013-06-19 05:13:00,65.8,60.8,29.93,SW,227,2.0,2.0,84,0.00,,BKN250,0.00,VWS V14.01,2013-06-19 10:13:00,
2013-06-19 05:18:00,65.7,60.7,29.93,SW,226,0.0,2.0,84,0.00,,BKN250,0.00,VWS V14.01,2013-06-19 10:18:00,
2013-06-19 05:23:00,65.6,60.6,29.94,SW,226,0.0,0.0,84,0.00,,BKN250,0.00,VWS V14.01,2013-06-19 10:23:00,
2013-06-19 05:28:00,65.7,60.7,29.94,SW,226,0.0,1.0,84,0.00,,BKN250,0.00,VWS V14.01,2013-06-19 10:28:00,
2013-06-19 05:33:00,65.9,60.9,29.94,SW,226,0.0,0.0,84,0.00,,BKN250,0.00,VWS V14.01,2013-06-19 10:33:00,
2013-06-19 05:38:00,66.1,61.1,29.94,SW,226,0.0,0.0,84,0.00,,BKN250,0.00,VWS V14.01,2013-06-19 10:38:00,
2013-06-19 05:43:00,66.3,61.0,29.94,SW,226,1.0,1.0,83,0.00,,BKN250,0.00,VWS V14.01,2013-06-19 10:43:00,
2013-06-19 05:48:00,66.5,61.2,29.95,SW,226,2.0,3.0,83,0.00,,BKN250,0.00,VWS V14.01,2013-06-19 10:48:00,
2013-06-19 05:53:00,66.5,61.2,29.95,SW,226,1.0,2.0,83,0.00,,BKN250,0.00,VWS V14.01,2013-06-19 10:53:00,
2013-06-19 05:58:00,66.5,61.2,29.95,SW,226,1.0,1.0,83,0.00,,BKN250,0.00,VWS V14.01,2013-06-19 10:58:00,
2013-06-19 06:03:00,66.5,61.2,29.95,SW,226,0.0,0.0,83,0.00,,BKN250,0.00,VWS V14.01,2013-06-19 11:03:00,
2013-06-19 06:08:00,66.4,61.4,29.95,SW,226,0.0,0.0,84,0.00,,BKN250,0.00,VWS V14.01,2013-06-19 11:08:00,
2013-06-19 06:13:00,66.2,61.2,29.95,SW,226,0.0,0.0,84,0.00,,BKN250,0.00,VWS V14.01,2013-06-19 11:13:00,
2013-06-19 06:18:00,66.0,61.0,29.95,SW,226,0.0,0.0,84,0.00,,BKN250,0.00,VWS V14.01,2013-06-19 11:18:00,
2013-06-19 06:23:00,65.9,60.9,29.95,SW,226,0.0,1.0,84,0.00,,BKN250,0.00,VWS V14.01,2013-06-19 11:23:00,
2013-06-19 06:28:00,65.9,61.3,29.95,SW,218,0.0,1.0,85,0.00,,BKN250,0.00,VWS V14.01,2013-06-19 11:28:00,
2013-06-19 06:33:00,65.8,61.2,29.95,SE,131,0.0,3.0,85,0.00,,BKN250,0.00,VWS V14.01,2013-06-19 11:33:00,
2013-06-19 06:38:00,65.6,61.3,29.95,East,86,1.0,3.0,86,0.00,,BKN250,0.00,VWS V14.01,2013-06-19 11:38:00,
2013-06-19 06:43:00,65.4,61.1,29.95,ESE,102,0.0,2.0,86,0.00,,BKN250,0.00,VWS V14.01,2013-06-19 11:43:00,
2013-06-19 06:48:00,65.2,60.9,29.95,ESE,102,0.0,0.0,86,0.00,,BKN250,0.00,VWS V14.01,2013-06-19 11:48:00,
2013-06-19 06:53:00,65.0,61.0,29.95,ESE,103,0.0,1.0,87,0.00,,BKN250,0.00,VWS V14.01,2013-06-19 11:53:00,
2013-06-19 06:58:00,64.9,60.9,29.95,ESE,108,2.0,2.0,87,0.00,,BKN250,0.00,VWS V14.01,2013-06-19 11:58:00,
2013-06-19 07:03:00,64.9,61.3,29.95,ESE,108,0.0,0.0,88,0.00,,BKN250,0.00,VWS V14.01,2013-06-19 12:03:00,
2013-06-19 07:08:00,65.1,61.5,29.95,ESE,115,0.0,1.0,88,0.00,,BKN250,0.00,VWS V14.01,2013-06-19 12:08:00,
2013-06-19 07:13:00,65.3,61.7,29.95,ESE,115,0.0,1.0,88,0.00,,BKN250,0.00,VWS V14.01,2013-06-19 12:13:00,
2013-06-19 07:19:00,65.5,61.9,29.96,SE,138,0.0,3.0,88,0.00,,BKN250,0.00,VWS V14.01,2013-06-19 12:19:00,
2013-06-19 07:24:00,65.9,62.6,29.96,South,175,4.0,4.0,89,0.00,,BKN250,0.00,VWS V14.01,2013-06-19 12:24:00,
2013-06-19 07:29:00,66.3,62.6,29.96,South,172,1.0,3.0,88,0.00,,BKN250,0.00,VWS V14.01,2013-06-19 12:29:00,
2013-06-19 07:34:00,66.8,62.8,29.96,SSE,164,0.0,1.0,87,0.00,,BKN250,0.00,VWS V14.01,2013-06-19 12:34:00,
2013-06-19 07:39:00,67.4,63.4,29.96,SSE,164,1.0,1.0,87,0.00,,BKN250,0.00,VWS V14.01,2013-06-19 12:39:00,
2013-06-19 07:44:00,67.8,63.5,29.96,SSE,164,0.0,1.0,86,0.00,,BKN250,0.00,VWS V14.01,2013-06-19 12:44:00,
2013-06-19 07:49:00,68.0,63.3,29.96,SSE,164,0.0,1.0,85,0.00,,BKN250,0.00,VWS V14.01,2013-06-19 12:49:00,
2013-06-19 07:54:00,68.1,63.4,29.96,SSE,164,2.0,4.0,85,0.00,,BKN250,0.00,VWS V14.01,2013-06-19 12:54:00,
2013-06-19 07:59:00,68.4,63.7,29.96,SSE,147,0.0,3.0,85,0.00,,BKN250,0.00,VWS V14.01,2013-06-19 12:59:00,
2013-06-19 08:04:00,68.5,63.8,29.96,SSE,147,0.0,1.0,85,0.00,,BKN250,0.00,VWS V14.01,2013-06-19 13:04:00,
2013-06-19 08:09:00,68.7,64.0,29.96,SSE,147,0.0,2.0,85,0.00,,BKN250,0.00,VWS V14.01,2013-06-19 13:09:00,
2013-06-19 08:14:00,69.3,64.6,29.96,SE,143,3.0,4.0,85,0.00,,BKN250,0.00,VWS V14.01,2013-06-19 13:14:00,
2013-06-19 08:19:00,69.8,64.8,29.96,SE,144,1.0,4.0,84,0.00,,BKN250,0.00,VWS V14.01,2013-06-19 13:19:00,
2013-06-19 08:24:00,70.3,64.6,29.96,SSE,156,4.0,6.0,82,0.00,,BKN250,0.00,VWS V14.01,2013-06-19 13:24:00,
2013-06-19 08:29:00,70.6,64.8,29.96,SSE,154,1.0,3.0,82,0.00,,BKN250,0.00,VWS V14.01,2013-06-19 13:29:00,
2013-06-19 08:34:00,71.3,65.2,29.96,ESE,112,7.0,7.0,81,0.00,,BKN250,0.00,VWS V14.01,2013-06-19 13:34:00,
2013-06-19 08:39:00,72.1,64.1,29.96,SSE,156,8.0,9.0,76,0.00,,BKN250,0.00,VWS V14.01,2013-06-19 13:39:00,
2013-06-19 08:44:00,72.4,64.4,29.96,SSE,162,8.0,9.0,76,0.00,,BKN250,0.00,VWS V14.01,2013-06-19 13:44:00,
2013-06-19 08:49:00,72.8,64.8,29.96,SSE,164,4.0,10.0,76,0.00,,BKN250,0.00,VWS V14.01,2013-06-19 13:49:00,
2013-06-19 08:54:00,73.2,64.4,29.96,South,177,6.0,8.0,74,0.00,,BKN250,0.00,VWS V14.01,2013-06-19 13:54:00,
2013-06-19 08:59:00,73.5,64.7,29.96,SSE,157,6.0,10.0,74,0.00,,BKN250,0.00,VWS V14.01,2013-06-19 13:59:00,
2013-06-19 09:04:00,73.7,64.9,29.96,ESE,120,7.0,11.0,74,0.00,,BKN250,0.00,VWS V14.01,2013-06-19 14:04:00,
2013-06-19 09:09:00,73.8,64.6,29.96,South,184,10.0,11.0,73,0.00,,BKN250,0.00,VWS V14.01,2013-06-19 14:09:00,
2013-06-19 09:14:00,74.2,63.8,29.96,SSE,167,8.0,13.0,70,0.00,,BKN250,0.00,VWS V14.01,2013-06-19 14:14:00,
2013-06-19 09:19:00,74.3,63.1,29.96,SSE,160,9.0,11.0,68,0.00,,BKN250,0.00,VWS V14.01,2013-06-19 14:19:00,
2013-06-19 09:24:00,74.6,63.3,29.96,SSE,166,9.0,13.0,68,0.00,,BKN250,0.00,VWS V14.01,2013-06-19 14:24:00,
2013-06-19 09:29:00,74.9,63.6,29.96,SE,141,5.0,11.0,68,0.00,,BKN250,0.00,VWS V14.01,2013-06-19 14:29:00,
2013-06-19 09:34:00,75.3,63.2,29.96,South,183,13.0,15.0,66,0.00,,BKN250,0.00,VWS V14.01,2013-06-19 14:34:00,
2013-06-19 09:39:00,75.7,64.0,29.96,South,177,8.0,10.0,67,0.00,,BKN250,0.00,VWS V14.01,2013-06-19 14:39:00,
2013-06-19 09:44:00,76.2,62.7,29.96,SE,141,11.0,13.0,63,0.00,,BKN250,0.00,VWS V14.01,2013-06-19 14:44:00,
2013-06-19 09:49:00,76.5,63.0,29.96,SSE,156,13.0,15.0,63,0.00,,BKN250,0.00,VWS V14.01,2013-06-19 14:49:00,
2013-06-19 09:54:00,76.7,63.2,29.96,South,183,8.0,11.0,63,0.00,,BKN250,0.00,VWS V14.01,2013-06-19 14:54:00,
2013-06-19 09:59:00,77.0,62.5,29.96,South,183,15.0,16.0,61,0.00,,BKN250,0.00,VWS V14.01,2013-06-19 14:59:00,
2013-06-19 10:04:00,76.9,62.4,29.96,SSE,162,7.0,18.0,61,0.00,,BKN250,0.00,VWS V14.01,2013-06-19 15:04:00,
2013-06-19 10:09:00,77.0,63.0,29.95,ESE,112,3.0,11.0,62,0.00,,BKN250,0.00,VWS V14.01,2013-06-19 15:09:00,
2013-06-19 10:14:00,77.3,63.7,29.95,South,182,12.0,14.0,63,0.00,,BKN250,0.00,VWS V14.01,2013-06-19 15:14:00,
2013-06-19 10:19:00,77.3,62.3,29.95,SE,145,10.0,15.0,60,0.00,,BKN250,0.00,VWS V14.01,2013-06-19 15:19:00,
2013-06-19 10:24:00,77.5,63.5,29.95,SSE,167,5.0,13.0,62,0.00,,BKN250,0.00,VWS V14.01,2013-06-19 15:24:00,
2013-06-19 10:29:00,78.0,63.5,29.95,SSE,163,4.0,12.0,61,0.00,,BKN250,0.00,VWS V14.01,2013-06-19 15:29:00,
2013-06-19 10:34:00,78.3,62.3,29.95,ESE,118,10.0,12.0,58,0.00,,BKN250,0.00,VWS V14.01,2013-06-19 15:34:00,
2013-06-19 10:39:00,78.3,62.3,29.95,South,172,11.0,15.0,58,0.00,,BKN250,0.00,VWS V14.01,2013-06-19 15:39:00,
2013-06-19 10:44:00,77.7,62.7,29.95,SSE,154,10.0,12.0,60,0.00,,BKN250,0.00,VWS V14.01,2013-06-19 15:44:00,
2013-06-19 10:49:00,77.6,62.6,29.95,South,189,11.0,15.0,60,0.00,,BKN250,0.00,VWS V14.01,2013-06-19 15:49:00,
2013-06-19 10:55:00,77.6,62.6,29.95,SSE,154,5.0,16.0,60,0.00,,BKN250,0.00,VWS V14.01,2013-06-19 15:55:00,
2013-06-19 11:00:00,77.5,63.0,29.95,South,187,13.0,15.0,61,0.00,,BKN250,0.00,VWS V14.01,2013-06-19 16:00:00,
2013-06-19 11:05:00,78.0,63.9,29.94,SSW,195,14.0,15.0,62,0.00,,BKN250,0.00,VWS V14.01,2013-06-19 16:05:00,
2013-06-19 11:10:00,78.1,62.6,29.95,SSE,159,13.0,13.0,59,0.00,,BKN250,0.00,VWS V14.01,2013-06-19 16:10:00,
2013-06-19 11:15:00,78.3,62.8,29.94,South,182,7.0,17.0,59,0.00,,BKN250,0.00,VWS V14.01,2013-06-19 16:15:00,
2013-06-19 11:20:00,78.7,63.7,29.94,South,169,11.0,13.0,60,0.00,,BKN250,0.00,VWS V14.01,2013-06-19 16:20:00,
2013-06-19 11:25:00,78.5,63.5,29.94,SSW,201,6.0,13.0,60,0.00,,BKN250,0.00,VWS V14.01,2013-06-19 16:25:00,
2013-06-19 11:30:00,78.7,64.6,29.94,South,188,10.0,14.0,62,0.00,,BKN250,0.00,VWS V14.01,2013-06-19 16:30:00,
2013-06-19 12:02:00,80.8,65.6,29.93,South,178,9.0,11.0,60,0.00,,BKN250,0.00,VWS V14.01,2013-06-19 17:02:00,
2013-06-19 12:07:00,80.8,65.6,29.93,SSE,162,4.0,11.0,60,0.00,,BKN250,0.00,VWS V14.01,2013-06-19 17:07:00,
2013-06-19 12:12:00,81.1,65.9,29.93,South,183,4.0,11.0,60,0.00,,BKN250,0.00,VWS V14.01,2013-06-19 17:12:00,
2013-06-19 12:18:00,81.2,66.5,29.93,South,175,9.0,12.0,61,0.00,,BKN250,0.00,VWS V14.01,2013-06-19 17:18:00,
2013-06-19 12:23:00,81.2,65.0,29.92,South,179,8.0,13.0,58,0.00,,BKN250,0.00,VWS V14.01,2013-06-19 17:23:00,
2013-06-19 12:27:00,81.6,65.9,29.92,SSE,164,8.0,14.0,59,0.00,,BKN250,0.00,VWS V14.01,2013-06-19 17:27:00,
2013-06-19 12:33:00,81.6,66.4,29.92,South,179,7.0,12.0,60,0.00,,BKN250,0.00,VWS V14.01,2013-06-19 17:33:00,
2013-06-19 12:38:00,81.9,66.2,29.92,South,180,8.0,13.0,59,0.00,,BKN250,0.00,VWS V14.01,2013-06-19 17:38:00,
2013-06-19 12:43:00,81.8,66.6,29.92,SSE,154,12.0,12.0,60,0.00,,BKN250,0.00,VWS V14.01,2013-06-19 17:43:00,
2013-06-19 12:48:00,81.8,66.1,29.92,SSE,163,8.0,12.0,59,0.00,,BKN250,0.00,VWS V14.01,2013-06-19 17:48:00,
2013-06-19 12:53:00,82.2,67.4,29.92,SSE,163,6.0,11.0,61,0.00,,BKN250,0.00,VWS V14.01,2013-06-19 17:53:00,
2013-06-19 12:58:00,82.5,65.8,29.92,SSE,158,8.0,14.0,57,0.00,,BKN250,0.00,VWS V14.01,2013-06-19 17:58:00,
2013-06-19 13:03:00,82.2,65.5,29.92,South,170,9.0,14.0,57,0.00,,BKN250,0.00,VWS V14.01,2013-06-19 18:03:00,
2013-06-19 13:08:00,81.9,66.2,29.91,South,180,13.0,16.0,59,0.00,,BKN250,0.00,VWS V14.01,2013-06-19 18:08:00,
2013-06-19 13:13:00,82.1,66.4,29.91,SSW,196,9.0,18.0,59,0.00,,BKN250,0.00,VWS V14.01,2013-06-19 18:13:00,
2013-06-19 13:18:00,82.7,66.4,29.91,South,184,11.0,14.0,58,0.00,,BKN250,0.00,VWS V14.01,2013-06-19 18:18:00,
2013-06-19 13:23:00,82.6,66.8,29.91,SSE,165,10.0,16.0,59,0.00,,BKN250,0.00,VWS V14.01,2013-06-19 18:23:00,
2013-06-19 13:28:00,82.4,65.7,29.91,South,190,14.0,16.0,57,0.00,,BKN250,0.00,VWS V14.01,2013-06-19 18:28:00,
2013-06-19 13:33:00,81.5,63.8,29.91,South,191,11.0,16.0,55,0.00,,BKN250,0.00,VWS V14.01,2013-06-19 18:33:00,
2013-06-19 13:38:00,81.2,65.0,29.91,South,179,16.0,16.0,58,0.00,,BKN250,0.00,VWS V14.01,2013-06-19 18:38:00,
2013-06-19 13:43:00,81.6,65.4,29.91,SSW,197,9.0,14.0,58,0.00,,BKN250,0.00,VWS V14.01,2013-06-19 18:43:00,
2013-06-19 13:48:00,82.1,65.9,29.90,SW,228,7.0,9.0,58,0.00,,BKN250,0.00,VWS V14.01,2013-06-19 18:48:00,
2013-06-19 13:53:00,82.8,66.0,29.90,SSW,197,12.0,19.0,57,0.00,,BKN250,0.00,VWS V14.01,2013-06-19 18:53:00,
2013-06-19 13:58:00,82.9,65.1,29.90,South,177,8.0,13.0,55,0.00,,BKN250,0.00,VWS V14.01,2013-06-19 18:58:00,
2013-06-19 14:03:00,82.7,65.9,29.90,South,185,6.0,7.0,57,0.00,,BKN250,0.00,VWS V14.01,2013-06-19 19:03:00,
2013-06-19 14:08:00,82.2,65.0,29.90,South,174,9.0,10.0,56,0.00,,BKN250,0.00,VWS V14.01,2013-06-19 19:08:00,
2013-06-19 14:13:00,82.1,64.3,29.90,South,183,12.0,15.0,55,0.00,,BKN250,0.00,VWS V14.01,2013-06-19 19:13:00,
2013-06-19 14:18:00,82.4,65.1,29.90,South,181,10.0,12.0,56,0.00,,BKN250,0.00,VWS V14.01,2013-06-19 19:18:00,
2013-06-19 14:23:00,82.5,64.2,29.90,South,176,8.0,14.0,54,0.00,,BKN250,0.00,VWS V14.01,2013-06-19 19:23:00,
2013-06-19 14:28:00,83.3,66.0,29.90,SW,215,10.0,13.0,56,0.00,,BKN250,0.00,VWS V14.01,2013-06-19 19:28:00,
2013-06-19 14:33:00,83.6,65.2,29.90,SSW,208,7.0,12.0,54,0.00,,BKN250,0.00,VWS V14.01,2013-06-19 19:33:00,
2013-06-19 14:38:00,83.1,64.8,29.90,SSE,152,10.0,14.0,54,0.00,,BKN250,0.00,VWS V14.01,2013-06-19 19:38:00,
2013-06-19 14:43:00,83.1,65.8,29.90,South,188,7.0,13.0,56,0.00,,BKN250,0.00,VWS V14.01,2013-06-19 19:43:00,
2013-06-19 14:48:00,83.0,65.2,29.90,SSW,200,8.0,13.0,55,0.00,,BKN250,0.00,VWS V14.01,2013-06-19 19:48:00,
2013-06-19 14:53:00,83.6,66.3,29.90,South,181,9.0,12.0,56,0.00,,BKN250,0.00,VWS V14.01,2013-06-19 19:53:00,
2013-06-19 14:58:00,83.9,66.0,29.90,SSE,160,12.0,12.0,55,0.00,,BKN250,0.00,VWS V14.01,2013-06-19 19:58:00,
2013-06-19 15:03:00,83.9,65.5,29.90,South,191,16.0,16.0,54,0.00,,BKN250,0.00,VWS V14.01,2013-06-19 20:03:00,
2013-06-19 15:08:00,83.6,66.3,29.90,South,172,10.0,12.0,56,0.00,,BKN250,0.00,VWS V14.01,2013-06-19 20:08:00,
2013-06-19 15:13:00,83.6,65.7,29.90,South,174,11.0,14.0,55,0.00,,BKN250,0.00,VWS V14.01,2013-06-19 20:13:00,
2013-06-19 15:18:00,83.4,64.5,29.90,SSW,192,15.0,19.0,53,0.00,,BKN250,0.00,VWS V14.01,2013-06-19 20:18:00,
2013-06-19 15:23:00,83.4,65.0,29.90,South,183,13.0,16.0,54,0.00,,BKN250,0.00,VWS V14.01,2013-06-19 20:23:00,
2013-06-19 15:28:00,83.5,65.1,29.90,SSW,193,9.0,15.0,54,0.00,,BKN250,0.00,VWS V14.01,2013-06-19 20:28:00,
2013-06-19 15:33:00,83.6,65.2,29.90,SSE,154,16.0,16.0,54,0.00,,BKN250,0.00,VWS V14.01,2013-06-19 20:33:00,
2013-06-19 15:38:00,83.2,64.8,29.90,South,180,12.0,14.0,54,0.00,,BKN250,0.00,VWS V14.01,2013-06-19 20:38:00,
2013-06-19 15:43:00,83.6,65.7,29.90,South,176,10.0,14.0,55,0.00,,BKN250,0.00,VWS V14.01,2013-06-19 20:43:00,
2013-06-19 15:48:00,83.5,65.7,29.89,SSE,168,12.0,13.0,55,0.00,,BKN250,0.00,VWS V14.01,2013-06-19 20:48:00,
2013-06-19 15:53:00,83.4,66.1,29.89,SSE,160,14.0,14.0,56,0.00,,BKN250,0.00,VWS V14.01,2013-06-19 20:53:00,
2013-06-19 15:58:00,83.2,65.4,29.89,South,172,10.0,15.0,55,0.00,,BKN250,0.00,VWS V14.01,2013-06-19 20:58:00,
2013-06-19 16:03:00,83.7,66.3,29.89,South,177,8.0,12.0,56,0.00,,BKN250,0.00,VWS V14.01,2013-06-19 21:03:00,
2013-06-19 16:08:00,84.1,65.7,29.89,SSE,158,6.0,13.0,54,0.00,,BKN250,0.00,VWS V14.01,2013-06-19 21:08:00,
2013-06-19 16:13:00,83.8,65.4,29.89,SSE,156,10.0,18.0,54,0.00,,BKN250,0.00,VWS V14.01,2013-06-19 21:13:00,
2013-06-19 16:18:00,83.8,64.9,29.88,SSE,152,7.0,14.0,53,0.00,,BKN250,0.00,VWS V14.01,2013-06-19 21:18:00,
2013-06-19 16:23:00,83.8,64.9,29.88,SSE,160,11.0,16.0,53,0.00,,BKN250,0.00,VWS V14.01,2013-06-19 21:23:00,
2013-06-19 16:28:00,83.5,66.2,29.88,South,170,8.0,15.0,56,0.00,,BKN250,0.00,VWS V14.01,2013-06-19 21:28:00,
2013-06-19 16:33:00,83.6,65.7,29.88,SSE,164,8.0,14.0,55,0.00,,BKN250,0.00,VWS V14.01,2013-06-19 21:33:00,
2013-06-19 16:38:00,83.6,65.7,29.88,SSE,149,8.0,15.0,55,0.00,,BKN250,0.00,VWS V14.01,2013-06-19 21:38:00,
2013-06-19 16:43:00,83.8,64.9,29.88,SSE,163,10.0,14.0,53,0.00,,BKN250,0.00,VWS V14.01,2013-06-19 21:43:00,
2013-06-19 16:48:00,83.8,65.4,29.88,SSE,164,10.0,18.0,54,0.00,,BKN250,0.00,VWS V14.01,2013-06-19 21:48:00,
2013-06-19 16:54:00,83.9,65.5,29.87,South,174,9.0,14.0,54,0.00,,BKN250,0.00,VWS V14.01,2013-06-19 21:54:00,
2013-06-19 16:59:00,84.1,65.7,29.87,South,174,8.0,16.0,54,0.00,,BKN250,0.00,VWS V14.01,2013-06-19 21:59:00,
2013-06-19 17:03:00,84.3,66.4,29.87,South,180,8.0,13.0,55,0.00,,BKN250,0.00,VWS V14.01,2013-06-19 22:03:00,
2013-06-19 17:09:00,84.2,65.2,29.87,South,178,14.0,17.0,53,0.00,,BKN250,0.00,VWS V14.01,2013-06-19 22:09:00,
2013-06-19 17:14:00,84.0,65.6,29.87,SSE,150,8.0,12.0,54,0.00,,BKN250,0.00,VWS V14.01,2013-06-19 22:14:00,
2013-06-19 17:19:00,83.9,64.4,29.87,South,173,11.0,17.0,52,0.00,,BKN250,0.00,VWS V14.01,2013-06-19 22:19:00,
2013-06-19 17:24:00,84.1,65.1,29.86,SSE,160,10.0,16.0,53,0.00,,BKN250,0.00,VWS V14.01,2013-06-19 22:24:00,
2013-06-19 17:29:00,84.2,64.7,29.86,South,185,6.0,18.0,52,0.00,,BKN250,0.00,VWS V14.01,2013-06-19 22:29:00,
2013-06-19 17:34:00,83.8,63.8,29.86,South,173,12.0,18.0,51,0.00,,BKN250,0.00,VWS V14.01,2013-06-19 22:34:00,
2013-06-19 17:39:00,83.3,64.4,29.86,South,180,9.0,12.0,53,0.00,,BKN250,0.00,VWS V14.01,2013-06-19 22:39:00,
2013-06-19 17:44:00,83.6,64.1,29.86,SSE,165,13.0,15.0,52,0.00,,BKN250,0.00,VWS V14.01,2013-06-19 22:44:00,
2013-06-19 17:49:00,83.4,64.0,29.86,East,97,13.0,14.0,52,0.00,,BKN250,0.00,VWS V14.01,2013-06-19 22:49:00,
2013-06-19 17:54:00,83.1,64.2,29.86,SSE,157,8.0,11.0,53,0.00,,BKN250,0.00,VWS V14.01,2013-06-19 22:54:00,
2013-06-19 17:59:00,83.1,63.7,29.86,South,177,11.0,15.0,52,0.00,,BKN250,0.00,VWS V14.01,2013-06-19 22:59:00,
2013-06-19 18:04:00,83.6,64.1,29.86,South,173,11.0,15.0,52,0.00,,BKN250,0.00,VWS V14.01,2013-06-19 23:04:00,
2013-06-19 18:09:00,83.7,65.3,29.85,SSE,158,7.0,9.0,54,0.00,,BKN250,0.00,VWS V14.01,2013-06-19 23:09:00,
2013-06-19 18:14:00,83.9,63.8,29.85,SSW,197,7.0,11.0,51,0.00,,BKN250,0.00,VWS V14.01,2013-06-19 23:14:00,
2013-06-19 18:19:00,83.9,63.8,29.85,South,177,7.0,14.0,51,0.00,,BKN250,0.00,VWS V14.01,2013-06-19 23:19:00,
2013-06-19 18:24:00,84.1,62.9,29.85,South,189,12.0,15.0,49,0.00,,BKN250,0.00,VWS V14.01,2013-06-19 23:24:00,
2013-06-19 18:29:00,83.9,63.3,29.85,South,181,11.0,15.0,50,0.00,,BKN250,0.00,VWS V14.01,2013-06-19 23:29:00,
2013-06-19 18:34:00,83.6,64.1,29.85,South,183,11.0,15.0,52,0.00,,BKN250,0.00,VWS V14.01,2013-06-19 23:34:00,
2013-06-19 18:39:00,83.8,62.0,29.85,South,185,7.0,13.0,48,0.00,,BKN250,0.00,VWS V14.01,2013-06-19 23:39:00,
2013-06-19 18:44:00,83.9,61.5,29.85,SSW,203,9.0,16.0,47,0.00,,BKN250,0.00,VWS V14.01,2013-06-19 23:44:00,
2013-06-19 18:49:00,83.8,62.0,29.85,South,185,9.0,13.0,48,0.00,,BKN250,0.00,VWS V14.01,2013-06-19 23:49:00,
2013-06-19 18:54:00,83.7,63.7,29.85,South,184,9.0,12.0,51,0.00,,BKN250,0.00,VWS V14.01,2013-06-19 23:54:00,
2013-06-19 18:59:00,83.6,63.0,29.85,SSE,166,10.0,14.0,50,0.00,,BKN250,0.00,VWS V14.01,2013-06-19 23:59:00,
2013-06-19 19:04:00,83.4,63.4,29.85,SSE,153,7.0,16.0,51,0.00,,BKN250,0.00,VWS V14.01,2013-06-20 00:04:00,
2013-06-19 19:09:00,83.4,63.4,29.85,South,169,9.0,16.0,51,0.00,,BKN250,0.00,VWS V14.01,2013-06-20 00:09:00,
2013-06-19 19:14:00,83.2,63.2,29.85,South,185,6.0,14.0,51,0.00,,SCT250,0.00,VWS V14.01,2013-06-20 00:14:00,
2013-06-19 19:19:00,83.1,63.1,29.85,South,174,9.0,14.0,51,0.00,,SCT250,0.00,VWS V14.01,2013-06-20 00:19:00,
2013-06-19 19:24:00,83.0,63.0,29.85,South,187,9.0,14.0,51,0.00,,SCT250,0.00,VWS V14.01,2013-06-20 00:24:00,
2013-06-19 19:29:00,82.7,63.3,29.85,South,172,10.0,17.0,52,0.00,,SCT250,0.00,VWS V14.01,2013-06-20 00:29:00,
2013-06-19 19:35:00,82.6,63.8,29.85,SSW,199,7.0,18.0,53,0.00,,SCT250,0.00,VWS V14.01,2013-06-20 00:35:00,
2013-06-19 19:40:00,82.2,63.9,29.85,South,175,6.0,10.0,54,0.00,,SCT250,0.00,VWS V14.01,2013-06-20 00:40:00,
2013-06-19 19:45:00,81.9,64.2,29.85,SSE,165,10.0,14.0,55,0.00,,SCT250,0.00,VWS V14.01,2013-06-20 00:45:00,
2013-06-19 19:50:00,81.8,64.1,29.85,SSE,168,8.0,12.0,55,0.00,,SCT250,0.00,VWS V14.01,2013-06-20 00:50:00,
2013-06-19 19:55:00,81.6,64.4,29.85,South,174,12.0,14.0,56,0.00,,SCT250,0.00,VWS V14.01,2013-06-20 00:55:00,
2013-06-19 20:00:00,81.4,64.7,29.85,South,172,6.0,9.0,57,0.00,,SCT250,0.00,VWS V14.01,2013-06-20 01:00:00,
2013-06-19 20:05:00,81.2,64.5,29.85,SSE,162,8.0,11.0,57,0.00,,BKN250,0.00,VWS V14.01,2013-06-20 01:05:00,
2013-06-19 20:10:00,81.0,64.3,29.85,South,178,4.0,9.0,57,0.00,,BKN250,0.00,VWS V14.01,2013-06-20 01:10:00,
2013-06-19 20:15:00,81.0,64.3,29.85,South,172,6.0,10.0,57,0.00,,SCT250,0.00,VWS V14.01,2013-06-20 01:15:00,
2013-06-19 20:20:00,80.8,64.7,29.85,South,183,7.0,8.0,58,0.00,,SCT250,0.00,VWS V14.01,2013-06-20 01:20:00,
2013-06-19 20:25:00,80.5,64.9,29.85,SSE,149,6.0,8.0,59,0.00,,SCT250,0.00,VWS V14.01,2013-06-20 01:25:00,
2013-06-19 20:30:00,80.3,64.7,29.86,South,188,3.0,11.0,59,0.00,,SCT250,0.00,VWS V14.01,2013-06-20 01:30:00,
2013-06-19 20:35:00,80.1,64.5,29.85,SSE,151,6.0,9.0,59,0.00,,SCT250,0.00,VWS V14.01,2013-06-20 01:35:00,
2013-06-19 20:40:00,79.9,64.8,29.85,South,174,5.0,7.0,60,0.00,,SCT250,0.00,VWS V14.01,2013-06-20 01:40:00,
2013-06-19 20:45:00,79.6,65.0,29.85,South,186,4.0,7.0,61,0.00,,SCT250,0.00,VWS V14.01,2013-06-20 01:45:00,
2013-06-19 20:50:00,79.4,64.8,29.85,South,173,5.0,7.0,61,0.00,,SCT250,0.00,VWS V14.01,2013-06-20 01:50:00,
2013-06-19 20:55:00,79.2,64.6,29.85,South,169,6.0,8.0,61,0.00,,SCT250,0.00,VWS V14.01,2013-06-20 01:55:00,
2013-06-19 21:00:00,79.1,65.0,29.85,SSE,164,5.0,7.0,62,0.00,,SCT250,0.00,VWS V14.01,2013-06-20 02:00:00,
2013-06-19 21:05:00,78.9,64.8,29.85,SSE,158,4.0,7.0,62,0.00,,SCT250,0.00,VWS V14.01,2013-06-20 02:05:00,
2013-06-19 21:10:00,78.5,64.9,29.85,SSE,168,4.0,6.0,63,0.00,,SCT250,0.00,VWS V14.01,2013-06-20 02:10:00,
2013-06-19 21:15:00,78.2,64.6,29.86,South,183,5.0,7.0,63,0.00,,SCT250,0.00,VWS V14.01,2013-06-20 02:15:00,
2013-06-19 21:20:00,78.1,64.5,29.86,SSE,160,7.0,8.0,63,0.00,,SCT250,0.00,VWS V14.01,2013-06-20 02:20:00,
2013-06-19 21:25:00,77.9,64.8,29.86,South,172,5.0,7.0,64,0.00,,SCT250,0.00,VWS V14.01,2013-06-20 02:25:00,
2013-06-19 21:30:00,77.8,64.7,29.86,South,184,3.0,6.0,64,0.00,,SCT250,0.00,VWS V14.01,2013-06-20 02:30:00,
2013-06-19 21:35:00,77.6,64.9,29.87,South,171,4.0,5.0,65,0.00,,SCT250,0.00,VWS V14.01,2013-06-20 02:35:00,
2013-06-19 21:40:00,77.3,64.6,29.87,SSE,164,4.0,5.0,65,0.00,,SCT250,0.00,VWS V14.01,2013-06-20 02:40:00,
2013-06-19 21:45:00,77.0,64.8,29.87,South,178,5.0,5.0,66,0.00,,SCT250,0.00,VWS V14.01,2013-06-20 02:45:00,
2013-06-19 21:50:00,76.7,64.9,29.88,SSE,166,5.0,5.0,67,0.00,,SCT250,0.00,VWS V14.01,2013-06-20 02:50:00,
2013-06-19 21:55:00,76.4,64.6,29.88,South,174,4.0,5.0,67,0.00,,FEW250,0.00,VWS V14.01,2013-06-20 02:55:00,
2013-06-19 22:00:00,76.2,64.9,29.88,South,176,4.0,5.0,68,0.00,,FEW250,0.00,VWS V14.01,2013-06-20 03:00:00,
2013-06-19 22:05:00,76.1,64.8,29.88,SSE,167,3.0,4.0,68,0.00,,FEW250,0.00,VWS V14.01,2013-06-20 03:05:00,
2013-06-19 22:10:00,76.0,65.1,29.88,South,174,3.0,3.0,69,0.00,,FEW250,0.00,VWS V14.01,2013-06-20 03:10:00,
2013-06-19 22:15:00,75.8,64.9,29.88,South,178,1.0,4.0,69,0.00,,FEW250,0.00,VWS V14.01,2013-06-20 03:15:00,
2013-06-19 22:20:00,75.7,64.8,29.88,South,174,3.0,3.0,69,0.00,,FEW250,0.00,VWS V14.01,2013-06-20 03:20:00,
2013-06-19 22:25:00,75.6,65.1,29.89,South,174,2.0,2.0,70,0.00,,FEW250,0.00,VWS V14.01,2013-06-20 03:25:00,
2013-06-19 22:30:00,75.4,64.9,29.89,South,174,2.0,3.0,70,0.00,,FEW250,0.00,VWS V14.01,2013-06-20 03:30:00,
2013-06-19 22:35:00,75.2,64.8,29.89,South,174,3.0,3.0,70,0.00,,FEW250,0.00,VWS V14.01,2013-06-20 03:35:00,
2013-06-19 22:40:00,75.2,65.2,29.89,South,172,3.0,3.0,71,0.00,,FEW250,0.00,VWS V14.01,2013-06-20 03:40:00,
2013-06-19 22:45:00,74.9,64.9,29.90,South,182,6.0,6.0,71,0.00,,CLR,0.00,VWS V14.01,2013-06-20 03:45:00,
2013-06-19 22:50:00,74.8,64.8,29.89,South,182,4.0,5.0,71,0.00,,CLR,0.00,VWS V14.01,2013-06-20 03:50:00,
2013-06-19 22:55:00,74.9,64.9,29.90,South,174,4.0,5.0,71,0.00,,CLR,0.00,VWS V14.01,2013-06-20 03:55:00,
2013-06-19 23:00:00,74.7,65.1,29.89,South,177,4.0,5.0,72,0.00,,CLR,0.00,VWS V14.01,2013-06-20 04:00:00,
2013-06-19 23:01:00,74.6,65.0,29.89,South,176,5.0,5.0,72,0.00,,CLR,0.00,VWS V14.01,2013-06-20 04:01:00,
2013-06-19 23:06:00,74.3,65.1,29.90,South,179,3.0,4.0,73,0.00,,CLR,0.00,VWS V14.01,2013-06-20 04:06:00,
2013-06-19 23:11:00,74.1,64.9,29.90,South,179,3.0,4.0,73,0.00,,CLR,0.00,VWS V14.01,2013-06-20 04:11:00,
2013-06-19 23:16:00,74.1,64.9,29.90,South,185,4.0,4.0,73,0.00,,CLR,0.00,VWS V14.01,2013-06-20 04:16:00,
2013-06-19 23:21:00,74.1,65.3,29.90,South,179,5.0,5.0,74,0.00,,CLR,0.00,VWS V14.01,2013-06-20 04:21:00,
2013-06-19 23:26:00,74.1,65.3,29.90,South,182,3.0,5.0,74,0.00,,CLR,0.00,VWS V14.01,2013-06-20 04:26:00,
2013-06-19 23:31:00,74.0,65.6,29.90,South,180,3.0,5.0,75,0.00,,CLR,0.00,VWS V14.01,2013-06-20 04:31:00,
2013-06-19 23:36:00,73.9,65.5,29.90,South,177,4.0,5.0,75,0.00,,CLR,0.00,VWS V14.01,2013-06-20 04:36:00,
2013-06-19 23:41:00,73.8,65.8,29.90,South,172,5.0,5.0,76,0.00,,CLR,0.00,VWS V14.01,2013-06-20 04:41:00,
2013-06-19 23:46:00,73.7,66.1,29.90,South,178,3.0,5.0,77,0.00,,CLR,0.00,VWS V14.01,2013-06-20 04:46:00,
2013-06-19 23:51:00,73.7,66.1,29.90,South,178,1.0,3.0,77,0.00,,CLR,0.00,VWS V14.01,2013-06-20 04:51:00,
2013-06-19 23:56:00,73.7,66.1,29.90,South,169,2.0,3.0,77,0.00,,CLR,0.00,VWS V14.01,2013-06-20 04:56:00,